Regional Weather Roundup
Issued by NWS

Home | Current Version | Previous Version | Text Only | Print | Product List | Glossary On
Versions: 1 2 3 4 5 6 7 8 9 10 11 12 13 14 15 16 17 18 19 20 21 22 23 24 25 26 27 28 29 30 31 32 33 34 35 36 37 38 39 40 41 42 43 44 45 46 47 48 49 50
000
ASCA44 KEWX 291420
RWRMX

LATIN AMERICA AND CARIBBEAN REGIONAL WEATHER ROUNDUP
NATIONAL WEATHER SERVICE AUSTIN/SAN ANTONIO TX
900 AM CDT SUN MAY 29 2016

NOTE: "FAIR" INDICATED FEW OR NO CLOUDS BELOW 12,000 FEET WITH NO
SIGNIFICANT WEATHER AND/OR OBSTRUCTIONS TO VISIBILITY.

BAJA CALIFORNIA

CITY           SKY/WX    TMP DP  RH WIND       PRES   REMARKS
LORETO         PTSUNNY   77  66  69 CALM      29.87R
LA PAZ         MOSUNNY   68  54  60 S10       29.94
MEXICALI       SUNNY     68  50  52 E7        29.87
S.J. DEL CABO  MOSUNNY   77  57  50 SE5       29.92R
TIJUANA        CLOUDY    57  54  88 W5        30.01R FOG

NORTHWESTERN MEXICO

CITY           SKY/WX    TMP DP  RH WIND       PRES   REMARKS
CULIACAN       PTSUNNY   77  66  69 CALM      29.90
DURANGO        PTSUNNY   63  45  51 CALM      30.30
GUAYMAS        MOSUNNY   72  34  25 CALM      29.86
HERMOSILLO     SUNNY     70  39  32 CALM      29.92
CD. JUAREZ     PTSUNNY   77  19  11 N6        30.05
OBREGON        PTSUNNY   75  45  33 NE3       29.88

NORTHEASTERN MEXICO

CITY           SKY/WX    TMP DP  RH WIND       PRES   REMARKS
CHIHUAHUA      PTSUNNY   72  34  25 CALM      30.17
MATAMOROS      PTSUNNY   82  79  89 SE8       30.01  HX  93
MONCLOVA         N/A    N/A N/A N/A MISG        N/A
MONTERREY      CLOUDY    75  72  88 CALM      30.00R FOG
NUEVO LAREDO   PTSUNNY   81  73  78 E14       30.00
PIEDRAS NEGRAS   N/A    N/A N/A N/A MISG        N/A
REYNOSA        PTSUNNY   79  75  89 SE6       30.02
SALTILLO       MOSUNNY   79  64  61 S10       30.20R
TORREON        PTSUNNY   79  54  41 E8        30.09R
CD. VICTORIA   MOSUNNY   79  75  89 SE12      29.97

WESTERN MEXICO

CITY           SKY/WX    TMP DP  RH WIND       PRES   REMARKS
AGUASCALIENTES MOSUNNY   66  52  59 NE5       30.34
COLIMA         MOSUNNY   73  68  83 CALM      30.05R
DEL BAJIO      PTSUNNY   70  57  64 NE3       30.35R
GUADALAJARA    PTSUNNY   72  52  49 CALM      30.22
MANZANILLO     PTSUNNY   77  68  73 N7        29.90R
MAZATLAN       MOSUNNY   73  63  68 NE6       29.90R
P. VALLARTA    PTSUNNY   75  70  83 CALM      29.92R
URUAPAN        CLOUDY    70  57  64 NW7       30.23F
ZACATECAS      SUNNY     66  46  48 SW7       30.35R

CENTRAL MEXICO

CITY           SKY/WX    TMP DP  RH WIND       PRES   REMARKS
CUERNAVACA     MOSUNNY   70  66  88 CALM      30.24R FOG
MEXICO CITY    PTSUNNY   64  55  72 CALM      30.41R
MORELIA        PTSUNNY   64  55  72 CALM      30.31
POZA RICA      CLOUDY    82  81  94 CALM      30.00R FOG     HX  95
PUEBLA         SUNNY     61  54  77 CALM      30.41R
QUERETARO      MOSUNNY   64  57  77 CALM      30.37R
S. LUIS POTOSI SUNNY     64  57  77 CALM      30.31R
TAMPICO        MOSUNNY   82  77  83 CALM      29.99R HAZE    HX  91
TOLUCA         MOSUNNY   52  52 100 CALM      30.48R HAZE

SOUTHERN MEXICO

CITY           SKY/WX    TMP DP  RH WIND       PRES   REMARKS
ACAPULCO       SUNNY     82  77  83 N3        29.92S HX  91
B. DE HUATULCO PTSUNNY   77  70  78 CALM      29.99
OAXACA         MOSUNNY   64  59  82 N5        30.30R
P. ESCONDIDO   MOSUNNY   81  72  74 NE12      30.00S
VERACRUZ       MOSUNNY   84  79  84 N3        29.96R HX  96
ZIHUATANEJO    MOSUNNY   79  73  83 CALM      29.92R

YUCATAN PENINSULA

CITY           SKY/WX    TMP DP  RH WIND       PRES   REMARKS
CAMPECHE       MOSUNNY   86  75  70 SE14G29   29.94R HX  95
CANCUN         PTSUNNY   86  77  74 E10       30.01R HX  97
CHETUMAL       MOSUNNY   84  77  79 E7        29.98  HX  94
CD. DEL CARMEN MOSUNNY   88  75  66 SE17      29.94  HX  97
COZUMEL        PTSUNNY   81  77  89 SE10      29.99S
MERIDA         MOSUNNY   84  75  74 SE12      29.99R HX  92
MINATITLAN     MOSUNNY   84  68  58 CALM      29.88
TAPACHULA      MOSUNNY   82  75  78 E8        29.90R
TUX. GUTIERREZ MOSUNNY   77  66  69 CALM      30.03R
VILLAHERMOSA   MOSUNNY   82  79  89 E8        29.95R HX  93

CENTRAL AMERICA

CITY           SKY/WX    TMP DP  RH WIND       PRES   REMARKS
BELIZE CITY    PTSUNNY   88  79  74 E12       29.99R HX 102
MANAGUA        MOSUNNY   86  75  70 NE5       29.92R HX  95

CARIBBEAN

CITY           SKY/WX    TMP DP  RH WIND       PRES   REMARKS
ARUBA          PTSUNNY   86  77  74 E20       29.92S HX  97
CURACAO        MOSUNNY   88  77  70 E17       29.97R HX 100
KINGSTON       MOSUNNY   84  73  70 S6        29.97S HX  91
NASSAU         MOSUNNY   86  73  66 SE3       30.07R HX  93
SAN JUAN       MOSUNNY   84  77  79 E13       30.03S HX  94
SANTO DOMINGO  MOSUNNY   84  77  79 VRB3      30.00S HX  94
ST. CROIX      MOSUNNY   82  75  78 E12       30.04R
ST. KITTS      MOSUNNY   84  73  70 E9        30.03S HX  91
ST. MAARTEN    MOSUNNY   84  77  79 E9        30.03S HX  94
ST. THOMAS     PTSUNNY   86  75  70 E10       30.02  HX  95

$$





USA.gov is the U.S. government's official web portal to all federal, state and local government web resources and services.